Location: Lafig�re
(44.4503°N, 4.0357°E)
Time: 16:00:59
(UTC+00:00)

Cosmos 1125 Rocket - Pass Details

Date: 24 September 2020
Orbit: 758 x 780 km, 74.0° (Epoch: 25 October)

Event Time Altitude Azimuth Distance (km) Brightness Sun altitude
Rises 18:38:15 0° 190° (S) 3,244 6.8 -11.7°
Reaches altitude 10° 18:40:37 10° 188° (S) 2,323 6.0 -12.1°
Maximum altitude 18:45:51 66° 107° (ESE) 852 3.5 -13.1°
Drops below altitude 10° 18:51:07 10° 26° (NNE) 2,341 5.9 -14.0°
Sets 18:53:32 0° 24° (NNE) 3,272 6.7 -14.4°
